CES875 ZSPD-PHNL

Flight info

Callsign CES875
Flight time N/A
Altitude 37000
Route LAM93D LAMEN A593 SADLI Y590 BEDAR Y591 FUE Y23 KASTE Y81 TASOT Y57 LIGNI Y816 IPROS Y830 LAPIL OTR13 SEALS DCT 35N150E 35N155E 35N160E/N0459F390 34N165E 32N170E 30N175E 29N180E 28N175W 25N170W 22N165W DCT BRIUN DCT KATHS OPACA4
Aircraft A343/H-SDE2E3FGHIJ4J5M1RWXY/LB1D1

Departure

Time 2026-05-07 11:12
Airport Shanghai Pudong International Airport (ZSPD)

Arrival

Time N/A
Airport Daniel K. Inouye International Airport (PHNL)
Time Latitude Longitude Altitude Speed Heading
2026-05-07 10:46 31.14941 121.79733 27 ft 0 kts 72°
2026-05-07 11:00 31.14940 121.79732 27 ft 2 kts 72°
2026-05-07 11:00 31.14933 121.79704 27 ft 4 kts 72°
2026-05-07 11:00 31.14924 121.79674 27 ft 4 kts 72°
2026-05-07 11:00 31.14918 121.79650 27 ft 4 kts 83°
2026-05-07 11:01 31.14920 121.79621 27 ft 4 kts 123°
2026-05-07 11:01 31.14939 121.79602 27 ft 3 kts 161°
2026-05-07 11:01 31.14958 121.79595 27 ft 0 kts 162°
2026-05-07 11:04 31.14956 121.79596 27 ft 1 kts 162°
2026-05-07 11:04 31.14939 121.79602 27 ft 5 kts 161°
2026-05-07 11:05 31.14895 121.79620 27 ft 9 kts 162°
2026-05-07 11:05 31.14820 121.79647 27 ft 14 kts 162°
2026-05-07 11:05 31.14718 121.79685 27 ft 18 kts 162°
2026-05-07 11:05 31.14616 121.79704 27 ft 13 kts 202°
2026-05-07 11:06 31.14571 121.79601 27 ft 16 kts 252°
2026-05-07 11:06 31.14507 121.79538 27 ft 8 kts 166°
2026-05-07 11:06 31.14440 121.79563 27 ft 12 kts 162°
2026-05-07 11:06 31.14348 121.79599 27 ft 16 kts 161°
2026-05-07 11:07 31.14228 121.79645 27 ft 20 kts 162°
2026-05-07 11:07 31.14083 121.79698 27 ft 24 kts 162°
2026-05-07 11:07 31.13917 121.79762 27 ft 27 kts 162°
2026-05-07 11:07 31.13734 121.79829 27 ft 28 kts 162°
2026-05-07 11:08 31.13550 121.79899 26 ft 28 kts 162°
2026-05-07 11:08 31.13364 121.79969 26 ft 28 kts 162°
2026-05-07 11:08 31.13181 121.80039 26 ft 27 kts 162°
2026-05-07 11:08 31.13002 121.80106 26 ft 27 kts 162°
2026-05-07 11:09 31.12852 121.80162 27 ft 12 kts 163°
2026-05-07 11:09 31.12790 121.80157 27 ft 8 kts 219°
2026-05-07 11:09 31.12770 121.80105 27 ft 7 kts 251°
2026-05-07 11:09 31.12756 121.80054 27 ft 7 kts 252°
2026-05-07 11:10 31.12740 121.79999 27 ft 9 kts 252°
2026-05-07 11:10 31.12718 121.79921 27 ft 10 kts 254°
2026-05-07 11:10 31.12734 121.79875 27 ft 4 kts 336°
2026-05-07 11:10 31.12741 121.79873 27 ft 0 kts 343°
2026-05-07 11:11 31.12872 121.79828 28 ft 45 kts 343°
2026-05-07 11:11 31.13327 121.79654 30 ft 91 kts 342°
2026-05-07 11:11 31.14062 121.79377 25 ft 129 kts 342°
2026-05-07 11:12 31.15025 121.79014 47 ft 159 kts 342°
2026-05-07 11:12 31.16047 121.78624 530 ft 152 kts 343°
2026-05-07 11:12 31.17043 121.78210 927 ft 157 kts 341°
2026-05-07 11:12 31.18088 121.77756 1346 ft 161 kts 343°
2026-05-07 11:13 31.19126 121.77292 1908 ft 161 kts 343°
2026-05-07 11:13 31.20215 121.76828 2247 ft 175 kts 344°
2026-05-07 11:13 31.21446 121.76347 2482 ft 200 kts 343°
2026-05-07 11:13 31.22852 121.75808 2760 ft 225 kts 343°
2026-05-07 11:14 31.24402 121.75208 3149 ft 242 kts 342°
2026-05-07 11:14 31.26000 121.74573 3884 ft 245 kts 341°
2026-05-07 11:14 31.27660 121.73908 4411 ft 258 kts 340°
2026-05-07 11:14 31.29377 121.73213 5051 ft 264 kts 339°
2026-05-07 11:15 31.31147 121.72550 5702 ft 270 kts 345°
2026-05-07 11:15 31.33038 121.72445 6386 ft 279 kts
2026-05-07 11:15 31.34855 121.73337 7013 ft 291 kts 35°
2026-05-07 11:15 31.36147 121.75172 7657 ft 298 kts 65°
2026-05-07 11:16 31.36565 121.77547 8364 ft 302 kts 94°
2026-05-07 11:16 31.36349 121.79988 9014 ft 305 kts 91°
2026-05-07 11:16 31.36515 121.82479 9560 ft 312 kts 80°
2026-05-07 11:16 31.36876 121.84997 10146 ft 316 kts 78°
2026-05-07 11:17 31.37298 121.87575 10474 ft 330 kts 77°
2026-05-07 11:17 31.37777 121.90262 10733 ft 345 kts 77°
2026-05-07 11:17 31.38063 121.93105 10973 ft 361 kts 91°
2026-05-07 11:17 31.37540 121.95988 11177 ft 375 kts 115°
2026-05-07 11:18 31.36053 121.98516 11401 ft 384 kts 139°
2026-05-07 11:18 31.33814 122.00220 11684 ft 387 kts 162°
2026-05-07 11:18 31.31196 122.00831 12126 ft 384 kts 181°
2026-05-07 11:18 31.28513 122.01164 12571 ft 393 kts 172°
2026-05-07 11:19 31.25852 122.02039 13073 ft 402 kts 163°
2026-05-07 11:19 31.23341 122.03559 13547 ft 413 kts 147°
2026-05-07 11:19 31.21278 122.05933 14002 ft 422 kts 130°
2026-05-07 11:19 31.19314 122.08476 14416 ft 422 kts 143°
2026-05-07 11:20 31.17103 122.10732 14929 ft 423 kts 141°
2026-05-07 11:20 31.14983 122.13137 15419 ft 428 kts 135°
2026-05-07 11:20 31.13162 122.15924 15887 ft 435 kts 122°
2026-05-07 11:20 31.12006 122.19201 16354 ft 442 kts 104°
2026-05-07 11:21 31.11760 122.22778 16807 ft 446 kts 84°
2026-05-07 11:21 31.12426 122.26320 17262 ft 448 kts 70°
2026-05-07 11:21 31.13465 122.29760 17671 ft 451 kts 69°
2026-05-07 11:21 31.14531 122.33221 18121 ft 455 kts 69°
2026-05-07 11:22 31.15580 122.36722 18471 ft 460 kts 70°
2026-05-07 11:22 31.16627 122.40291 18705 ft 467 kts 70°
2026-05-07 11:22 31.17668 122.43892 19120 ft 470 kts 70°
2026-05-07 11:22 31.19431 122.50049 19782 ft 474 kts 70°
2026-05-07 11:23 31.23633 122.64848 21260 ft 485 kts 70°
2026-05-07 11:23 31.27878 122.79888 22768 ft 493 kts 70°
2026-05-07 11:23 31.32198 122.95272 23886 ft 506 kts 70°
2026-05-07 11:23 31.36602 123.11046 25249 ft 509 kts 71°
2026-05-07 11:24 31.41031 123.26987 26181 ft 522 kts 70°
2026-05-07 11:24 31.45538 123.43302 27260 ft 529 kts 71°
2026-05-07 11:24 31.50059 123.59760 28331 ft 535 kts 71°